Regional Weather Roundup
Issued by NWS

Home | Current Version | Previous Version | Text Only | Print | Product List | Glossary Off
Versions: 1 2 3 4 5 6 7 8 9 10 11 12 13 14 15 16 17 18 19 20 21 22 23 24 25 26 27

000
ASUS45 KTFX 021810
RWRMT
MONTANA REGIONAL WEATHER ROUNDUP
NATIONAL WEATHER SERVICE GREAT FALLS MT
1100 AM MST FRI DEC 02 2016

NOTE: "FAIR" INDICATES FEW OR NO CLOUDS BELOW 12000 FEET WITH NO
SIGNIFICANT WEATHER AND/OR OBSTRUCTIONS TO VISIBILITY.

MTZ001>007-043-021900-
WEST OF THE DIVIDE

CITY           SKY/WX    TMP DP  RH WIND       PRES   REMARKS
KALISPELL      CLOUDY    32  27  81 CALM      30.23F
MISSOULA       CLOUDY    29  27  92 CALM      30.30F
BUTTE          SUNNY     27  14  58 N3        30.20S
MULLAN PASS    CLOUDY    20  17  88 VRB6      30.17S WCI  12
ANACONDA         N/A     28  12  50 W9        30.21F WCI  20
DEER LODGE       N/A     30  21  69 E3        30.24F
EUREKA           N/A     36  25  64 SE6       30.22F WCI  31
HAMILTON         N/A     36  16  44 S8        30.28F WCI  29
LIBBY            N/A     36  30  80 CALM      30.25S
PLAINS           N/A     37  23  57 S8        30.27F WCI  31
RONAN            N/A     34  24  67 CALM      30.28S
$$

MTZ008-052>055-021900-
SOUTHWEST MONTANA

CITY           SKY/WX    TMP DP  RH WIND       PRES   REMARKS
BOZEMAN        CLOUDY    28  22  78 CALM      30.24S
DILLON         PTSUNNY   27  14  58 SW3       30.22S
W YELLOWSTONE  PTSUNNY   18  14  86 CALM      30.20S
ENNIS          CLOUDY    27  18  69 S8        30.27S WCI  18
THREE FORKS      N/A     32  32 100 CALM      30.19F
TWIN BRIDGES     N/A     28  15  58 E8        30.19S WCI  20
$$

MTZ009-010-012-014-046-048-049-054-021900-
EAST SLOPES AND CENTRAL MONTANA

CITY           SKY/WX    TMP DP  RH WIND       PRES   REMARKS
CUT BANK       SUNNY     33  22  63 W23       30.04F WCI  21
GREAT FALLS    SUNNY     29  22  75 SW16      30.12F WCI  17
MALMSTROM AFB  SUNNY     29  24  82 SW15      30.13S WCI  18
HELENA         SUNNY     36  16  44 W17G23    30.20S WCI  26
AUGUSTA          N/A     32  19  57 W21G28    30.08F WCI  20
BOWMANS CRNR     N/A     31  22  68 SW17      30.08F WCI  19
CHOTEAU          N/A     36  21  55 W15G21    30.09F WCI  26
CONRAD           N/A     30  27  89 NW1       30.08F
FAIRFIELD        N/A     33  22  62 SW13      30.08F WCI  24
POWER            N/A     30  23  77 SW14      30.09F WCI  19
RAYNESFORD       N/A     31  20  62 SW15      30.13S WCI  20
ULM              N/A     31  24  72 SW6G16    30.13F WCI  26
$$

MTZ011-013-016-021-045-047-050-051-021900-
NORTH CENTRAL MONTANA

CITY           SKY/WX    TMP DP  RH WIND       PRES   REMARKS
HAVRE          SUNNY     31  27  85 SW12      30.12F WCI  22
LEWISTOWN      SUNNY     32  21  64 SW14      30.12F WCI  22
N BAR RANCH      N/A     32  23  69 CALM      30.13F
CHINOOK          N/A     30  27  86 SW3       30.12F
DENTON           N/A     29  24  79 S9G24     30.10F WCI  21
GEYSER           N/A     31  21  65 SW16G26   30.10F WCI  20
GRASS RANGE      N/A     35  24  64 W9        30.09F WCI  28
JUDITH GAP       N/A     29  19  64 SW21G29   30.11F WCI  16
ROY              N/A     38  22  54 MISG      30.11F
STANFORD         N/A     32  22  65 SW7       30.10F WCI  26
WINIFRED         N/A     34  24  69 MISG      30.11F
$$

MTZ017>020-022>027-061-062-021900-
NORTHEAST MONTANA

CITY           SKY/WX    TMP DP  RH WIND       PRES   REMARKS
GLASGOW        CLOUDY    28  24  85 S7        30.15F WCI  21
JORDAN           N/A     37  28  70 W9        30.16F WCI  30
SIDNEY         CLOUDY    28  26  92 S8        30.19F WCI  20
WOLF POINT     CLOUDY    33  25  72 W6        30.18F WCI  28
PLENTYWOOD       N/A     27  25  93 CALM      30.15F
POPLAR           N/A     30  25  80 W3        30.18F
SCOBEY           N/A     28  19  69 S5        30.10F
$$

MTZ028>42-056>058-021900-
SOUTHCENTRAL AND SOUTHEAST MONTANA

CITY           SKY/WX    TMP DP  RH WIND       PRES   REMARKS
BAKER          CLOUDY    28  23  81 W8        30.19S WCI  20
BILLINGS       MOSUNNY   36  24  62 SW8       30.19F WCI  30
LIVINGSTON     MOSUNNY   32  18  56 W20       30.18F WCI  20
MILES CITY     CLOUDY    27  23  85 S6        30.19F WCI  20
BIG TIMBER     MOSUNNY   36  18  48 W24G32    30.18F WCI  24
EKALAKA          N/A     28  23  81 SW3       30.13S
FORSYTH          N/A     36  27  69 W8        30.19F WCI  29
HARLOWTON        N/A     34  20  55 W25       30.14F WCI  21
LAUREL           N/A     35  16  46 S6        30.15F WCI  30
ROUNDUP          N/A     34  23  64 SW10      30.07F WCI  26
$$

REGIONAL REPORTS...DAKOTAS

CITY           SKY/WX    TMP DP  RH WIND       PRES   REMARKS
WILLISTON      CLOUDY    28  23  81 SW8       30.19S WCI  20
MINOT          CLOUDY    27  23  85 SE6       30.20F WCI  20
DICKINSON      CLOUDY    26  23  88 S6        30.15F WCI  19
BEACH          CLOUDY    27  27 100 W13       30.20S WCI  16
CROSBY         CLOUDY    28  28 100 S8        30.19F WCI  20
TIOGA          CLOUDY    27  27 100 S6        30.18S WCI  20
WATFORD CITY   PTSUNNY   27  25  93 SW9       30.19S WCI  17
BISMARCK       CLOUDY    25  18  74 E8        30.26F WCI  16
GRAND FORKS    CLOUDY    32  22  66 NW12      30.26S WCI  23
FARGO          CLOUDY    30  21  69 N9        30.27S WCI  22
BUFFALO SD       N/A     30  26  85 NW7       30.11F WCI  23
RAPID CITY     CLOUDY    36  24  62 N12       30.19S WCI  28
$$

REGIONAL REPORTS...WYOMING/IDAHO/WASHINGTON

CITY           SKY/WX    TMP DP  RH WIND       PRES   REMARKS
GILLETTE       PTSUNNY   33  25  72 N7        30.18S WCI  27
SHERIDAN       SUNNY     37  22  54 CALM      30.19F
BUFFALO WY     SUNNY     36  17  46 SE8       30.18S WCI  30
CODY           SUNNY     34  11  38 NW5       30.18S
YELLOWSTONE LA   N/A     20  12  71 SE5       30.15R
IDAHO FALLS    FOG       19  17  92 CALM      30.31R VSB 1/4
SALMON         CLOUDY    32  23  69 CALM      30.31S
BOISE          SUNNY     32  23  69 S6        30.40R WCI  26
SPOKANE        CLOUDY    32  31  96 S7        30.30R WCI  26
$$

REGIONAL REPORTS...ALBERTA

CITY           SKY/WX    TMP DP  RH WIND       PRES   REMARKS
EDMONTON       SUNNY     23  23 100 S7        29.87F WCI  15
CALGARY        MOSUNNY   27  18  69 S7        29.88F WCI  19
LETHBRIDGE     MOSUNNY   36  19  51 SW17      29.98F WCI  25
MEDICINE HAT   SUNNY     30  25  80 S8        30.04F WCI  23
WATERTON GATE    N/A     34  16  47 SW32G45     N/A  WCI  20
CARDSTON         N/A     37  18  44 SW7         N/A
MILK RIVER       N/A     36  25  64 SW7         N/A  WCI  30
ONEFOUR          N/A     30  25  80 E1          N/A
$$

REGIONAL REPORTS...SASKATCHEWAN

CITY           SKY/WX    TMP DP  RH WIND       PRES   REMARKS
SWIFT CURRENT  CLOUDY    21  21 100 W10       30.05F WCI  10
REGINA         FRZ DRZL  27  25  93 W8        30.13S VSB 1   WCI  18
SASKATOON      FLURRIES  27  23  86 SW9       30.13F WCI  17
ROCKGLEN         N/A     25  23  93 MISG        N/A
ASSINIBOIA       N/A     27  25  93 S10         N/A  WCI  17
$$




USA.gov is the U.S. government's official web portal to all federal, state and local government web resources and services.